User: anonymous   Login
Location: Key Biscayne
(25.6930°N, 80.1630°W)
Time: 23:18:58
(UTC-05:00)
Language:

N. Korean satellite - Orbit

View from above orbital plane
View from above orbital plane
View from above satellite
View from above satellite

Ground track
Ground track

The orbit data is extracted from the following two-line orbital elements,

1 39026U 12072A   18054.55995836 +.00001554 +00000-0 +61190-4 0  9996
2 39026 097.2146 068.7949 0039836 008.8988 351.2948 15.26386248288267
Epoch (UTC): 23 February 2018 13:26:20
Eccentricity: 0.0039836
inclination: 97.2146°
perigee height: 459 km
apogee height: 514 km
right ascension of ascending node: 68.7949°
argument of perigee: 8.8988°
revolutions per day: 15.26386248
mean anomaly at epoch: 351.2948°
orbit number at epoch: 28826

The dashed part of the orbit path shows where the satellite is in the earth's shadow,  

DLR